Weather Roundup
Issued by NWS Chicago, IL

Home | Current Version | Previous Version | Text Only | Print | Product List | Glossary Off
Versions: 1 2 3 4 5 6 7 8 9 10 11 12 13 14 15 16 17 18 19 20 21 22 23 24 25 26 27 28 29 30 31 32 33 34 35 36 37 38 39 40 41 42 43 44 45 46 47 48 49 50

000
NZUS59 KLOT 310108
HRRLOT

CHICAGO AREA WEATHER ROUNDUP
NATIONAL WEATHER SERVICE CHICAGO/ROMEOVILLE IL
800 PM CDT MON MAY 30 2016

NOTE: "FAIR" INDICATES FEW OR NO CLOUDS BELOW 12,000 FEET WITH NO
SIGNIFICANT WEATHER AND/OR OBSTRUCTIONS TO VISIBILITY.

* THESE STATIONS ARE NOT UNDER NWS QUALITY CONTROL. THEY ALSO MAY NOT
  REPORT WEATHER SUCH AS PRECIPITATION OR FOG.

ILZ005-006-012>014-019>023-310200-
NORTHEAST ILLINOIS

CITY           SKY/WX    TMP DP  RH WIND       PRES   REMARKS
OHARE          MOCLDY    77  56  48 E9        29.96R
MIDWAY         CLOUDY    77  55  46 NE9       29.96R
AURORA         CLOUDY    80  58  46 NE6       29.96R HX  80
LANSING*       CLOUDY    77  56  48 NE3       29.96S
JOLIET*        CLOUDY    77  63  62 CALM      29.95S
WAUKEGAN       CLEAR     68  57  68 E5        29.97S
DUPAGE AIRPORT CLOUDY    78  55  44 NE5       29.95S
WHEELING       CLEAR     73  55  53 E6        29.98R
KANKAKEE*      CLOUDY    78  57  49 SW6       29.96S
MORRIS*        PTCLDY    82  56  40 CALM      29.94R HX  82
LEWIS AIRPORT* PTCLDY    79  51  36 NE6       29.96S
$$

WIZ051-052-058>065-066-070>072-310200-
SOUTHEAST WISCONSIN

CITY           SKY/WX    TMP DP  RH WIND       PRES   REMARKS
MILWAUKEE      PTCLDY    68  56  65 SE5       29.99S
KENOSHA*       CLEAR     70  54  56 E6        29.99R
RACINE*        CLEAR     66  57  72 E3        30.00S
BURLINGTON     CLEAR     73  55  54 E7        29.98S
WAUKESHA       CLEAR     72  55  56 E9        30.00R
WEST BEND      CLEAR     70  55  60 CALM      29.99S
$$

INZ001>003-010>013-019-020-310200-
NORTHWEST INDIANA

CITY           SKY/WX    TMP DP  RH WIND       PRES   REMARKS
GARY*          MOCLDY    75  63  64 NE10      29.97R
MICHIGAN CITY* NOT AVBL
RENSSELAER*    NOT AVBL
VALPARAISO     CLOUDY    78  58  49 N3        29.97S
$$

LMZ740>746-310200-
SOUTHERN LAKE MICHIGAN

STATION/POSITION TIME  SKY/WX   TEMP WIND        PRES    VSBY
                                AIR  DIR/SP/G
                 (UTC)          (F)  (DEG/KT/KT) (MB)    (MI)
HARRISON CRIB    0000            68   30/  4/  4   N/A
BURNHAM HARBOR   0100            67  350/  3/  4   N/A
CALUMET HARBOR   0000            68                N/A
BURNS HARBOR     0000            69   80/ 10/ 11 1014.9S
MICHIGAN CITY    0000            68   30/ 10/ 10   N/A
$$

ABBREVIATIONS USED IN REMARKS
   TC - TEMPERATURE IN CELSIUS
  WCI - WIND CHILL INDEX
   HX - HEAT INDEX
  VSB - VISIBILITY
$$




USA.gov is the U.S. government's official web portal to all federal, state and local government web resources and services.